sat.trackr.live / text

‹ back to catalog

STARLINK-4755

NORAD 53851 · 2022-114AK

PAYLOAD ACTIVE UNKNOWN

§ Identity

Operator
Country
US
Launch date
2022-09-19
Launch site
AFETR
Launch vehicle
Mass (kg)
RCS (m²)

Purposes: comms

External: N2YO · Heavens-Above · Gunter

§ Orbital elements

Epoch: 2026-09-20T22:58:54.588864Z

Period
95.43 min
Inclination
53.1593°
Eccentricity
0.0002728
Mean motion
15.08973042 rev/d
Perigee alt
537.4 km
Apogee alt
541.2 km
Semi-major
6,917.5 km
B*
1.0788e-3
RAAN
136.6346°
Arg perigee
70.5356°
Mean anomaly
289.5930°
Rev number
22,245

§ Raw data

STARLINK-47551 53851U 22114AK  26263.95757626  .00016987  00000+0  10788-2 0  99942 53851  53.1593 136.6346 0002728  70.5356 289.5930 15.08973042222454

JSON: /api/v1/satellites/53851 · /tle

For live sub-satellite position, see the globe view (requires WebGL).

§ Visibility from observer

Set your observer location to see the next 7 days of passes ≥ 10°. The values pass through the URL so the page stays shareable.

No JS? Fill the form by hand. The geolocation button needs JavaScript.